Flag for China Weather past 2 weeks in Chengdu, Sichuan, China

Now
79 °F

Clear.


Feels Like: 81 °F
Forecast: 72 / 86 °F
Wind: 3 mph from North

Location: Chengdu Airport

Current Time: Jul 6, 2015 at 9:49:15 AM

Latest Report: Jul 6, 2015 at 9:00 AM


Visibility: 4 mi

Pressure: 29.83 "Hg

Humidity: 65%

Dew point: 66 °F

Location of ChengduLocation

Historic Weather in Chengdu — Graph

°F

Chengdu temperature yesterday

Maximum temperature yesterday: 84 °F (at 1:00 PM)
Minimum temperature yesterday: 68 °F (at 4:00 AM)
Average temperature yesterday: 76 °F

Past Weeks' High & Low Weather Summary

 TemperatureHumidityPressure
High91 °F (Jun 21, 3:00 PM)94% (Jun 23, 3:00 AM)29.92 "Hg (Jun 23, 3:00 AM)
Low68 °F (Jul 4, 3:00 AM)36% (Jun 21, 3:00 PM)29.36 "Hg (Jun 26, 5:00 PM)
Average78 °F74%29.64 "Hg
* Reported Jun 21 8:00 AM — Jul 6 8:00 AM, Chengdu, Weather by CustomWeather, © 2015

Note: Actual official high and low records may vary slightly from our data, if they occured in-between our weather recording intervals... More about our weather records

Advertising

Chengdu weather history for previous 24 hours

 ConditionsComfort  
Time TempWeatherWind HumidityBarometerVisibility
8:00 AM
Mon, Jul 6
73 °FClear.1 mph83%29.83 "Hg4 mi
7:00 AM72 °FClear.1 mph83%29.83 "Hg4 mi
6:00 AM70 °FClear.No wind83%29.83 "Hg10 mi
5:00 AM70 °FClear.1 mph83%29.80 "Hg10 mi
4:00 AM70 °FClear.No wind83%29.83 "Hg10 mi
3:00 AM70 °FClear.No wind88%29.83 "Hg10 mi
2:00 AM73 °FClear.1 mph74%29.83 "Hg10 mi
1:00 AM73 °FClear.1 mph74%29.86 "Hg10 mi
12:00 AM73 °FClear.1 mph74%29.83 "Hg10 mi
11:00 PM
Sun, Jul 5
75 °FPassing clouds.3 mph69%29.83 "HgN/A
10:00 PM77 °FPassing clouds.6 mph65%29.83 "HgN/A
9:00 PM79 °FPassing clouds.6 mph61%29.83 "HgN/A
8:00 PM79 °FPassing clouds.3 mph58%29.80 "HgN/A
7:00 PM82 °FPassing clouds.6 mph48%29.77 "HgN/A
6:00 PM84 °FScattered clouds.3 mph43%29.80 "HgN/A
5:00 PM84 °FScattered clouds.6 mph45%29.80 "HgN/A
4:00 PM84 °FScattered clouds.6 mph43%29.80 "HgN/A
3:00 PM84 °FPassing clouds.6 mph45%29.83 "HgN/A
2:00 PM84 °FPassing clouds.6 mph40%29.83 "HgN/A
1:00 PM84 °FPassing clouds.3 mph45%29.86 "HgN/A
12:00 PM81 °FSunny.1 mph58%29.89 "Hg10 mi
11:00 AM77 °FSunny.No wind65%29.89 "Hg10 mi
10:00 AM75 °FClear.1 mph74%29.89 "Hg5 mi
9:00 AM72 °FClear.1 mph83%29.89 "Hg4 mi
Weather by CustomWeather, © 2015

See weather overviewHow to use our weather pages